Theta_e
331 331 329 326 318 306 302 302 306 310 313 314 314 311 309 306 305 310 314 315 315 315 313 312 311 310 310 309 309 309 308 308 308 307 307 307 307 307 307 307 307 307 308
333 330 327 324 316 305 303 304 306 309 313 313 311 309 306 303 303 306 312 313 315 314 312 311 310 310 309 308 307 307 307 306 306 306 306 305 305 305 305 305 305 306 306
333 332 327 323 316 305 303 306 308 309 311 311 309 306 304 302 300 301 310 312 313 311 310 309 309 308 308 307 306 306 305 305 305 305 304 304 304 304 304 304 304 304 305
332 332 328 323 318 305 303 306 308 308 310 309 307 304 303 301 300 300 306 310 311 309 307 307 307 307 307 307 306 306 305 304 304 304 303 303 303 303 303 303 303 303 303
332 331 329 324 317 304 302 306 307 308 308 307 305 303 302 301 300 299 303 307 308 305 304 305 305 305 306 306 306 305 304 304 303 303 302 302 302 302 301 302 302 302 302
332 331 330 324 314 303 303 307 307 307 308 307 303 302 301 300 300 299 300 300 300 301 301 301 301 302 303 304 304 304 304 303 302 302 301 301 301 300 300 300 301 301 301
332 331 330 324 317 302 303 307 306 306 306 305 302 300 300 300 300 299 299 299 299 300 300 298 297 298 299 300 302 302 302 302 301 300 300 299 299 299 299 299 299 299 300
332 332 331 323 320 303 305 307 306 304 304 305 302 300 298 298 299 299 299 299 299 299 299 298 297 295 293 293 296 299 300 300 300 299 298 298 298 298 298 298 298 298 298
330 331 331 327 323 304 305 308 307 305 303 303 302 302 299 299 297 297 298 298 299 298 298 297 296 294 293 292 290 290 293 296 297 297 297 297 296 296 296 297 297 297 297
328 327 327 328 320 310 306 307 306 305 304 302 302 302 302 300 299 297 296 297 297 298 297 296 296 294 293 291 290 289 288 291 295 295 295 295 295 295 295 295 296 296 296
325 327 324 322 318 315 309 306 304 305 305 303 303 301 302 300 300 297 296 294 295 297 297 296 295 294 293 292 291 290 288 287 291 292 293 292 293 293 293 294 294 294 294
321 322 322 319 318 312 309 309 306 305 305 304 304 302 302 300 299 297 295 294 294 294 296 296 295 293 293 292 291 290 288 287 287 289 289 289 290 290 291 292 292 292 292
319 318 317 316 312 313 309 307 305 304 304 304 303 302 303 303 302 300 296 294 294 293 294 295 295 293 293 292 291 290 288 287 287 286 286 286 287 288 288 289 289 290 290
316 315 314 312 310 308 306 305 304 304 303 304 303 302 303 303 303 302 298 295 294 292 293 293 293 293 294 293 292 290 288 287 286 286 285 285 284 286 287 287 287 287 288
315 315 313 311 309 306 305 306 306 303 302 303 304 303 302 300 300 301 301 299 296 295 294 293 294 294 293 293 291 290 288 287 286 286 285 285 284 286 286 285 286 286 286
312 312 311 310 306 307 306 307 305 304 303 302 302 301 300 299 300 299 299 298 299 297 296 293 294 293 293 293 291 289 288 287 286 285 285 285 285 284 284 284 284 284 284
310 309 308 307 306 306 306 304 303 303 303 301 300 300 300 299 299 298 298 298 298 299 293 290 291 292 293 292 290 289 287 287 286 285 285 285 284 283 283 283 282 282 282
309 308 307 306 306 305 304 303 301 300 302 301 299 300 298 299 300 300 300 298 297 295 294 288 288 289 290 291 289 288 286 286 285 285 284 283 283 283 282 281 280 280 281
309 309 307 305 304 305 303 302 302 300 299 300 298 298 299 299 297 296 296 295 294 295 295 291 287 287 287 288 288 285 285 285 284 283 283 282 281 280 279 279 279 279 279
309 307 307 306 304 303 302 302 301 300 299 299 299 299 299 299 298 296 295 294 294 293 292 289 287 286 286 286 287 284 282 282 282 281 281 280 278 278 278 278 278 278 278
309 308 306 305 304 303 301 301 300 299 298 298 297 297 298 296 295 295 293 292 292 290 290 288 285 284 283 282 283 283 282 282 281 280 279 278 278 278 277 277 277 277 277
309 306 305 304 301 300 300 301 300 299 298 297 296 295 294 293 292 292 292 292 290 289 288 286 285 284 282 282 282 282 282 280 280 279 278 278 278 277 277 277 276 276 276
308 306 304 303 302 300 300 299 299 298 297 295 294 293 291 291 291 290 289 288 288 287 289 290 288 287 286 286 286 282 280 279 278 277 277 277 277 276 276 276 275 275 276
305 305 303 302 301 299 298 297 298 297 295 293 293 292 291 288 288 288 287 286 286 287 288 288 286 285 284 283 282 281 279 277 277 277 276 276 276 275 274 274 274 274 275
302 302 302 301 299 299 297 296 295 294 291 290 290 290 289 288 287 287 286 286 284 283 282 282 282 281 281 280 279 278 277 277 276 276 275 275 275 274 273 274 273 273 274
302 300 299 298 297 296 295 293 294 291 288 287 286 287 288 287 285 286 287 285 281 280 280 280 280 280 279 278 278 277 277 276 275 274 274 273 273 273 272 272 273 273 272
Wind_Speed
29 27 26 25 24 24 25 25 24 25 25 25 23 21 20 18 18 19 22 20 16 16 15 15 15 15 15 15 16 16 17 17 16 16 17 18 18 19 20 20 21 20 20
29 29 27 27 26 25 26 25 25 26 25 25 24 21 20 19 19 20 23 21 18 17 16 15 15 14 14 15 16 16 16 16 15 16 16 17 18 18 20 20 20 20 19
34 31 30 29 27 26 25 25 23 25 26 26 24 22 20 19 18 20 22 22 22 21 18 16 14 14 14 14 14 15 15 15 15 16 16 17 17 18 19 20 20 20 19
36 33 33 32 30 29 28 27 25 26 27 27 25 24 21 19 18 18 20 20 20 19 17 16 15 14 13 13 14 14 15 15 15 15 15 16 16 17 18 19 19 19 19
39 37 35 35 34 33 34 29 28 29 28 27 26 24 22 20 19 18 18 18 17 15 15 16 15 14 13 13 13 13 13 14 13 14 14 14 15 16 18 18 18 18 19
42 40 37 38 36 37 34 34 31 28 31 30 27 23 21 19 18 17 18 17 17 17 15 16 16 16 13 13 12 12 12 12 12 12 12 13 14 16 16 17 17 17 18
48 44 43 38 36 40 40 36 33 32 28 31 29 18 14 16 16 17 17 17 18 17 14 14 14 16 14 12 12 11 11 11 11 11 11 12 13 14 15 15 16 16 17
53 51 49 46 48 47 44 43 40 34 25 38 19 15 3 3 11 17 17 18 19 18 16 13 13 13 11 10 11 11 11 10 10 10 11 11 12 13 14 14 14 15 16
54 55 54 54 50 49 49 51 51 46 29 39 30 11 3 4 9 13 20 20 21 19 17 15 13 10 9 8 7 7 9 10 9 9 10 10 11 12 13 13 13 14 15
51 53 54 57 55 54 48 53 54 50 38 38 35 16 9 16 4 3 11 21 22 22 20 18 15 12 8 7 7 7 6 9 10 9 9 10 11 11 11 11 12 13 14
49 56 54 54 56 56 52 46 42 41 39 38 36 24 20 14 14 5 4 9 18 23 22 20 18 15 11 9 7 6 5 7 9 8 9 9 10 10 11 11 11 12 13
38 48 54 55 58 52 52 56 56 55 50 41 41 37 30 13 12 7 3 6 14 19 23 23 20 18 15 12 9 7 5 5 6 7 7 8 9 9 9 9 10 11 11
32 38 44 46 46 58 54 54 56 52 50 44 43 39 36 28 28 15 14 8 5 7 13 22 23 20 17 15 11 10 7 5 5 5 5 5 6 7 7 8 8 10 10
15 20 21 22 28 33 35 35 39 41 42 40 41 37 37 26 25 26 17 20 3 2 6 9 25 24 22 19 14 13 8 6 5 5 3 1 2 4 6 7 9 9 11
14 15 15 25 20 16 25 27 31 23 28 37 37 38 34 24 21 20 20 26 20 4 5 15 13 29 27 21 18 15 11 7 6 4 5 4 2 2 4 7 6 6 8
18 17 14 16 23 24 23 23 27 31 32 30 30 29 29 24 20 19 19 20 14 12 4 10 19 25 32 25 21 18 14 11 9 8 8 7 5 4 6 5 5 6 10
11 16 10 20 18 20 22 25 28 31 34 34 34 32 28 26 26 25 24 18 14 15 7 6 19 17 30 29 25 20 16 14 13 12 11 8 6 5 6 8 9 10 9
5 10 14 16 16 19 19 22 27 30 32 30 30 27 32 28 24 20 23 24 21 20 14 12 14 18 22 29 28 22 19 16 14 13 10 7 7 9 11 11 9 9 7
8 10 13 13 20 23 27 29 30 29 29 28 34 32 28 26 25 25 22 21 21 17 13 14 12 17 20 27 26 22 20 18 14 10 9 10 10 9 8 9 11 10 7
14 17 16 16 19 24 29 32 31 29 27 27 30 31 27 24 24 23 24 24 23 19 17 23 19 20 21 23 26 25 19 16 12 9 8 9 8 8 9 8 9 8 7
17 21 18 19 20 25 30 31 29 30 28 24 22 24 25 27 25 26 26 26 22 23 24 22 18 17 17 21 22 20 17 13 9 10 9 10 10 10 9 8 10 7 11
16 19 20 20 24 26 29 33 34 31 28 25 24 22 22 20 21 20 19 19 25 26 24 17 14 17 16 20 19 17 13 8 4 10 9 11 11 10 9 10 10 14 17
15 20 21 23 25 27 29 34 32 30 29 28 28 26 23 19 19 19 18 20 20 20 22 21 23 20 19 23 23 20 16 11 6 5 7 9 7 8 8 12 18 17 13
18 22 24 23 25 27 28 33 31 28 29 29 30 30 28 26 24 26 25 23 19 14 12 12 12 16 15 19 17 14 12 9 7 6 4 4 6 8 13 22 15 8 9
16 22 25 25 25 24 29 32 32 30 29 29 30 29 28 27 26 26 29 24 18 15 12 12 13 14 13 12 14 14 13 10 3 3 4 6 5 16 19 13 8 6 4
15 21 22 23 25 24 29 34 33 30 30 29 27 25 26 29 28 24 22 23 24 22 19 16 15 15 15 13 9 7 10 11 6 2 5 2 5 6 7 7 5 12 22
Wind_Direction
203 203 201 198 194 191 189 183 179 177 175 171 169 167 160 156 153 149 144 140 139 130 118 112 108 104 99 94 89 84 81 78 75 72 68 67 64 63 63 61 56 52 47
211 208 206 202 198 196 191 190 185 182 177 174 169 168 163 158 154 151 148 145 144 138 123 117 111 104 99 95 91 85 81 79 75 72 68 66 64 62 62 60 55 53 48
214 212 209 207 202 199 196 194 188 186 179 175 170 167 162 158 155 153 154 154 146 139 127 120 115 109 102 97 92 88 85 80 76 72 69 67 65 62 62 60 55 53 49
217 215 209 212 206 198 195 194 189 183 181 177 171 166 162 158 155 154 159 161 160 149 128 122 120 115 109 105 99 93 89 83 78 74 70 68 64 61 58 58 54 51 49
219 220 214 212 207 200 190 196 191 188 181 177 171 166 164 163 159 157 159 161 163 159 147 126 121 118 115 110 105 99 93 88 82 77 72 69 65 61 57 55 51 48 46
223 221 218 214 209 198 191 189 195 189 184 176 166 162 163 165 166 166 162 160 158 157 155 141 135 126 115 112 108 103 97 93 87 82 76 70 66 62 57 54 49 46 45
218 223 223 212 214 206 192 193 189 189 176 175 154 147 158 174 175 176 173 169 165 165 166 151 142 132 120 112 109 105 103 99 94 88 81 74 68 66 62 57 50 46 44
221 217 219 215 209 206 200 194 189 179 175 179 161 138 145 181 203 193 186 183 176 174 175 171 158 145 134 127 118 111 106 105 99 91 84 77 69 65 61 58 55 48 43
221 218 219 216 213 210 202 202 190 188 172 179 177 154 152 189 139 199 200 196 186 183 183 181 175 163 151 140 129 124 120 108 103 93 86 79 70 65 60 56 53 48 44
219 221 218 216 213 207 201 202 194 191 181 179 185 201 164 144 157 149 199 201 197 191 189 187 186 178 171 153 132 104 112 120 112 103 93 81 68 62 60 57 54 48 44
218 221 218 214 209 205 204 199 190 186 190 182 182 180 160 158 145 145 154 171 198 199 196 196 192 190 182 173 157 125 99 113 123 108 98 86 75 63 58 53 48 43 41
218 217 217 214 209 204 199 204 202 194 192 193 187 189 173 166 167 149 120 149 164 191 198 200 200 196 190 183 169 154 127 114 124 124 108 88 76 64 57 54 45 37 35
213 217 216 213 217 203 200 195 194 193 191 190 188 187 193 189 176 153 126 138 158 156 189 204 204 199 195 193 182 180 155 142 135 143 135 103 82 64 55 49 36 31 27
235 236 225 245 240 215 196 189 189 185 194 188 190 189 192 190 184 173 153 140 112 131 163 169 203 203 205 199 195 188 168 169 169 164 154 136 100 50 38 26 18 14 16
282 265 234 224 225 232 196 191 198 198 190 193 195 196 189 177 176 177 172 167 141 143 184 189 183 208 208 199 199 191 186 184 188 185 188 218 220 21 358 351 358 9 4
298 283 242 225 199 201 210 196 203 193 194 182 180 175 166 167 173 178 173 155 142 142 150 183 197 200 205 202 201 192 188 190 196 196 202 216 231 275 313 320 323 335 341
255 243 231 215 198 188 193 193 198 189 182 174 174 173 170 177 165 156 157 169 178 187 149 163 195 194 198 196 192 192 191 196 192 199 211 219 238 267 276 292 300 306 317
266 233 215 206 180 186 189 192 182 176 173 172 176 185 171 169 172 188 190 184 185 182 153 156 169 174 188 192 190 187 183 187 189 191 205 224 256 273 284 295 297 302 305
235 233 229 207 192 185 190 190 188 184 178 182 174 179 178 181 179 176 177 174 177 188 187 171 149 165 163 180 176 176 183 182 191 206 231 253 265 273 284 291 287 293 304
243 237 231 218 206 194 193 188 186 190 194 196 193 189 202 213 218 198 191 187 186 183 179 161 145 153 158 170 183 178 175 189 203 224 247 262 268 283 293 285 287 291 301
249 244 231 224 220 209 195 196 194 190 188 193 198 203 206 204 209 199 188 187 180 168 165 151 143 156 160 164 179 181 186 197 222 245 248 257 278 294 290 282 299 304 312
240 237 226 216 211 204 205 207 198 192 194 191 187 192 192 188 190 200 201 198 174 178 162 146 155 162 165 171 172 177 187 195 210 244 249 257 278 281 287 291 307 310 307
232 233 224 216 213 213 208 199 201 192 187 184 182 178 174 181 175 164 162 171 177 180 178 185 177 181 186 199 201 191 193 201 205 223 273 287 279 285 282 295 308 303 300
226 219 218 216 211 211 202 192 196 190 183 180 180 177 174 163 165 162 156 154 154 159 177 184 186 183 189 182 187 197 200 191 206 232 241 260 281 282 303 309 305 288 295
232 215 218 211 209 205 195 189 187 179 172 172 174 175 171 166 168 171 162 155 153 147 148 156 157 158 162 177 184 174 163 160 184 202 252 234 278 316 311 306 299 297 275
250 224 212 209 206 191 190 184 181 171 154 155 166 168 171 165 164 169 169 162 151 154 154 147 139 137 146 150 165 171 173 166 163 178 187 297 287 315 314 295 295 288 295